| time (UTC) | temp C | wind direction | speed KPH | gust KPH | rain 1hr cm | rain 24hr cm | rain mn cm | humidity % | barometer mb |
| 20260502190506 | 20 | 94 | 4.8 | 16.1 | 0.00 | 0.00 | 0.00 | 16 | 1019.7 |
| 20260502190016 | 20 | 115 | 6.4 | 16.1 | 0.00 | 0.00 | 0.00 | 16 | 1019.8 |
| 20260502185509 | 21 | 72 | 4.8 | 8.0 | 0.00 | 0.00 | 0.00 | 16 | 1019.9 |
| 20260502185011 | 20 | 80 | 1.6 | 6.4 | 0.00 | 0.00 | 0.00 | 16 | 1019.9 |
| 20260502184513 | 20 | 140 | 1.6 | 16.1 | 0.00 | 0.00 | 0.00 | 17 | 1019.9 |
| 20260502184002 | 20 | 105 | 3.2 | 16.1 | 0.00 | 0.00 | 0.00 | 17 | 1020.0 |
| 20260502183503 | 20 | 349 | 4.8 | 14.5 | 0.00 | 0.00 | 0.00 | 16 | 1020.0 |
| 20260502183010 | 20 | 183 | 4.8 | 14.5 | 0.00 | 0.00 | 0.00 | 18 | 1020.3 |
| 20260502182506 | 20 | 155 | 3.2 | 9.7 | 0.00 | 0.00 | 0.00 | 17 | 1020.3 |
| 20260502182006 | 19 | 211 | 1.6 | 14.5 | 0.00 | 0.00 | 0.00 | 17 | 1020.5 |
| 20260502181513 | 19 | 119 | 4.8 | 14.5 | 0.00 | 0.00 | 0.00 | 17 | 1020.5 |
| 20260502181007 | 19 | 198 | 4.8 | 8.0 | 0.00 | 0.00 | 0.00 | 17 | 1020.6 |
| 20260502180508 | 19 | 97 | 1.6 | 16.1 | 0.00 | 0.00 | 0.00 | 16 | 1020.8 |
| 20260502170509 | 17 | 50 | 1.6 | 11.3 | 0.00 | 0.00 | 0.00 | 18 | 1021.3 |
| 20260502164003 | 17 | 22 | 4.8 | 12.9 | 0.00 | 0.00 | 0.00 | 19 | 1021.3 |
| 20260502163503 | 17 | 342 | 1.6 | 12.9 | 0.00 | 0.00 | 0.00 | 19 | 1021.3 |
| 20260502163014 | 17 | 58 | 8.0 | 12.9 | 0.00 | 0.00 | 0.00 | 18 | 1021.4 |
| 20260502162508 | 16 | 346 | 3.2 | 12.9 | 0.00 | 0.00 | 0.00 | 20 | 1021.4 |
| 20260502162007 | 16 | 20 | 3.2 | 12.9 | 0.00 | 0.00 | 0.00 | 21 | 1021.3 |
| 20260502161518 | 16 | 96 | 3.2 | 14.5 | 0.00 | 0.00 | 0.00 | 20 | 1021.4 |
| 20260502161006 | 16 | 22 | 3.2 | 14.5 | 0.00 | 0.00 | 0.00 | 19 | 1021.5 |
| 20260502160510 | 16 | 76 | 3.2 | 12.9 | 0.00 | 0.00 | 0.00 | 19 | 1021.5 |
| 20260502152007 | 15 | 124 | 1.6 | 6.4 | 0.00 | 0.00 | 0.00 | 24 | 1021.9 |
| 20260502151512 | 15 | 88 | 1.6 | 4.8 | 0.00 | 0.00 | 0.00 | 25 | 1021.9 |
| 20260502151007 | 15 | 74 | 1.6 | 4.8 | 0.00 | 0.00 | 0.00 | 27 | 1022.0 |
| 20260502150507 | 14 | 171 | 1.6 | 4.8 | 0.00 | 0.00 | 0.00 | 28 | 1022.0 |
| 20260502130508 | 2 | 138 | 0.0 | 1.6 | 0.00 | 0.00 | 0.00 | 66 | 1022.4 |
| 20260502123507 | 0 | 221 | 0.0 | 0.0 | 0.00 | 0.00 | 0.00 | 71 | 1022.2 |
| 20260502123020 | 0 | 221 | 0.0 | 0.0 | 0.00 | 0.00 | 0.00 | 71 | 1022.2 |
| 20260502122507 | 0 | 221 | 0.0 | 0.0 | 0.00 | 0.00 | 0.00 | 70 | 1022.2 |
| 20260502122006 | 0 | 221 | 0.0 | 0.0 | 0.00 | 0.00 | 0.00 | 69 | 1022.1 |
| 20260502121504 | 0 | 202 | 0.0 | 0.0 | 0.00 | 0.00 | 0.00 | 68 | 1022.1 |
| 20260502121004 | 0 | 206 | 0.0 | 0.0 | 0.00 | 0.00 | 0.00 | 68 | 1022.0 |
| 20260502120503 | 0 | 206 | 0.0 | 3.2 | 0.00 | 0.00 | 0.00 | 68 | 1022.1 |
| 20260502115508 | 1 | 207 | 0.0 | 3.2 | 0.00 | 0.00 | 0.00 | 67 | 1022.0 |
| 20260502115009 | 1 | 207 | 0.0 | 3.2 | 0.00 | 0.00 | 0.00 | 66 | 1022.1 |
| 20260502114524 | 1 | 207 | 0.0 | 3.2 | 0.00 | 0.00 | 0.00 | 66 | 1022.0 |
| 20260502114003 | 1 | 207 | 0.0 | 3.2 | 0.00 | 0.00 | 0.00 | 65 | 1022.0 |
| 20260502113504 | 1 | 207 | 0.0 | 3.2 | 0.00 | 0.00 | 0.00 | 64 | 1022.0 |
| 20260502113007 | 1 | 208 | 0.0 | 3.2 | 0.00 | 0.00 | 0.00 | 64 | 1021.9 |
| 20260502112503 | 2 | 210 | 0.0 | 3.2 | 0.00 | 0.00 | 0.00 | 62 | 1021.9 |
| 20260502112005 | 2 | 246 | 0.0 | 3.2 | 0.00 | 0.00 | 0.00 | 62 | 1022.0 |
| 20260502111516 | 2 | 346 | 0.0 | 3.2 | 0.00 | 0.00 | 0.00 | 60 | 1021.9 |
| 20260502111008 | 2 | 346 | 0.0 | 3.2 | 0.00 | 0.00 | 0.00 | 60 | 1021.9 |
| 20260502110511 | 3 | 346 | 0.0 | 3.2 | 0.00 | 0.00 | 0.00 | 59 | 1021.8 |
| 20260502110004 | 3 | 346 | 0.0 | 3.2 | 0.00 | 0.00 | 0.00 | 56 | 1021.8 |
| 20260502105505 | 3 | 346 | 0.0 | 3.2 | 0.00 | 0.00 | 0.00 | 54 | 1021.8 |
| 20260502105003 | 3 | 346 | 0.0 | 3.2 | 0.00 | 0.00 | 0.00 | 53 | 1021.8 |
| 20260502104521 | 3 | 346 | 0.0 | 3.2 | 0.00 | 0.00 | 0.00 | 54 | 1021.8 |
| 20260502104005 | 3 | 348 | 1.6 | 3.2 | 0.00 | 0.00 | 0.00 | 54 | 1021.8 |
| 20260502103506 | 3 | 338 | 0.0 | 3.2 | 0.00 | 0.00 | 0.00 | 55 | 1021.7 |
| 20260502103020 | 3 | 319 | 0.0 | 3.2 | 0.00 | 0.00 | 0.00 | 56 | 1021.7 |
| 20260502102513 | 2 | 319 | 0.0 | 3.2 | 0.00 | 0.00 | 0.00 | 56 | 1021.7 |
| 20260502102003 | 2 | 279 | 0.0 | 3.2 | 0.00 | 0.00 | 0.00 | 58 | 1021.7 |
| 20260502101509 | 2 | 197 | 0.0 | 3.2 | 0.00 | 0.00 | 0.00 | 61 | 1021.6 |
| 20260502101003 | 2 | 197 | 0.0 | 3.2 | 0.00 | 0.00 | 0.00 | 62 | 1021.5 |
| 20260502100504 | 2 | 195 | 1.6 | 4.8 | 0.00 | 0.00 | 0.00 | 64 | 1021.5 |
| 20260502071522 | 5 | 192 | 0.0 | 3.2 | 0.00 | 0.00 | 0.00 | 51 | 1021.8 |
| 20260502071003 | 5 | 192 | 0.0 | 3.2 | 0.00 | 0.00 | 0.00 | 50 | 1021.8 |
| 20260502070504 | 6 | 192 | 0.0 | 3.2 | 0.00 | 0.00 | 0.00 | 49 | 1021.9 |
| 20260502070007 | 6 | 192 | 0.0 | 3.2 | 0.00 | 0.00 | 0.00 | 49 | 1021.9 |
| 20260502065504 | 6 | 220 | 0.0 | 3.2 | 0.00 | 0.00 | 0.00 | 48 | 1021.9 |
| 20260502065013 | 6 | 221 | 0.0 | 3.2 | 0.00 | 0.00 | 0.00 | 47 | 1022.0 |
| 20260502064517 | 7 | 194 | 0.0 | 6.4 | 0.00 | 0.00 | 0.00 | 46 | 1022.0 |
| 20260502064007 | 7 | 208 | 1.6 | 6.4 | 0.00 | 0.00 | 0.00 | 45 | 1022.0 |
| 20260502063511 | 7 | 199 | 1.6 | 3.2 | 0.00 | 0.00 | 0.00 | 43 | 1022.0 |
| 20260502063007 | 7 | 185 | 0.0 | 3.2 | 0.00 | 0.00 | 0.00 | 44 | 1022.1 |
| 20260502062503 | 7 | 234 | 1.6 | 6.4 | 0.00 | 0.00 | 0.00 | 43 | 1022.0 |
| 20260502062004 | 7 | 235 | 1.6 | 6.4 | 0.00 | 0.00 | 0.00 | 43 | 1022.0 |
| 20260502061513 | 7 | 184 | 0.0 | 3.2 | 0.00 | 0.00 | 0.00 | 43 | 1022.0 |
| 20260502061008 | 8 | 209 | 1.6 | 4.8 | 0.00 | 0.00 | 0.00 | 43 | 1022.0 |
| 20260502060506 | 7 | 215 | 1.6 | 4.8 | 0.00 | 0.00 | 0.00 | 42 | 1022.0 |
| 20260502060034 | 7 | 189 | 1.6 | 3.2 | 0.00 | 0.00 | 0.00 | 43 | 1022.0 |
| 20260502055506 | 8 | 230 | 0.0 | 3.2 | 0.00 | 0.00 | 0.00 | 44 | 1022.1 |
| 20260502055003 | 8 | 230 | 0.0 | 3.2 | 0.00 | 0.00 | 0.00 | 44 | 1022.1 |
| 20260502054506 | 7 | 232 | 0.0 | 3.2 | 0.00 | 0.00 | 0.00 | 43 | 1022.1 |
| 20260502054003 | 7 | 227 | 0.0 | 3.2 | 0.00 | 0.00 | 0.00 | 43 | 1022.0 |
| 20260502053505 | 7 | 232 | 0.0 | 3.2 | 0.00 | 0.00 | 0.00 | 44 | 1021.8 |
| 20260502053016 | 8 | 238 | 0.0 | 3.2 | 0.00 | 0.00 | 0.00 | 44 | 1021.8 |
| 20260502052514 | 8 | 238 | 0.0 | 0.0 | 0.00 | 0.00 | 0.00 | 44 | 1021.8 |
| 20260502052007 | 8 | 238 | 0.0 | 3.2 | 0.00 | 0.00 | 0.00 | 44 | 1021.8 |
| 20260502051524 | 8 | 238 | 0.0 | 3.2 | 0.00 | 0.00 | 0.00 | 42 | 1021.8 |
| 20260502051006 | 8 | 238 | 0.0 | 3.2 | 0.00 | 0.00 | 0.00 | 42 | 1021.7 |
| 20260502050502 | 8 | 238 | 0.0 | 3.2 | 0.00 | 0.00 | 0.00 | 43 | 1021.7 |
| 20260502050016 | 8 | 246 | 0.0 | 41.8 | 0.00 | 0.00 | 0.00 | 41 | 1021.8 |
| 20260502045506 | 8 | 250 | 0.0 | 41.8 | 0.00 | 0.00 | 0.00 | 43 | 1021.8 |
| 20260502045010 | 8 | 247 | 0.0 | 3.2 | 0.00 | 0.00 | 0.00 | 43 | 1021.8 |
| 20260502044518 | 8 | 199 | 0.0 | 3.2 | 0.00 | 0.00 | 0.00 | 43 | 1021.8 |
| 20260502044008 | 8 | 198 | 0.0 | 3.2 | 0.00 | 0.00 | 0.00 | 42 | 1021.8 |
| 20260502043510 | 8 | 198 | 0.0 | 3.2 | 0.00 | 0.00 | 0.00 | 42 | 1021.8 |
| 20260502043003 | 8 | 198 | 0.0 | 3.2 | 0.00 | 0.00 | 0.00 | 41 | 1021.8 |
| 20260502042502 | 8 | 198 | 0.0 | 3.2 | 0.00 | 0.00 | 0.00 | 41 | 1021.8 |
| 20260502042004 | 8 | 198 | 0.0 | 3.2 | 0.00 | 0.00 | 0.00 | 41 | 1021.7 |
| 20260502041529 | 9 | 198 | 0.0 | 3.2 | 0.00 | 0.00 | 0.00 | 40 | 1021.7 |
| 20260502041005 | 9 | 198 | 0.0 | 3.2 | 0.00 | 0.00 | 0.00 | 39 | 1021.6 |
| 20260502040509 | 9 | 119 | 0.0 | 3.2 | 0.00 | 0.00 | 0.00 | 40 | 1021.6 |
| 20260502040043 | 9 | 213 | 0.0 | 3.2 | 0.00 | 0.00 | 0.00 | 40 | 1021.5 |
| 20260502035506 | 9 | 209 | 0.0 | 3.2 | 0.00 | 0.00 | 0.00 | 39 | 1021.5 |
| 20260502035011 | 9 | 210 | 0.0 | 3.2 | 0.00 | 0.00 | 0.00 | 37 | 1021.4 |
| 20260502034506 | 9 | 209 | 0.0 | 3.2 | 0.00 | 0.00 | 0.00 | 36 | 1021.3 |
| 20260502034005 | 10 | 207 | 0.0 | 3.2 | 0.00 | 0.00 | 0.00 | 39 | 1021.2 |
| 20260502033505 | 10 | 206 | 0.0 | 3.2 | 0.00 | 0.00 | 0.00 | 39 | 1021.0 |
| 20260502033027 | 10 | 206 | 0.0 | 3.2 | 0.00 | 0.00 | 0.00 | 37 | 1020.8 |
| 20260502032507 | 10 | 221 | 0.0 | 3.2 | 0.00 | 0.00 | 0.00 | 36 | 1020.8 |
| 20260502032011 | 10 | 221 | 0.0 | 3.2 | 0.00 | 0.00 | 0.00 | 35 | 1020.6 |
| 20260502031526 | 10 | 221 | 0.0 | 3.2 | 0.00 | 0.00 | 0.00 | 35 | 1020.5 |
| 20260502031009 | 10 | 221 | 0.0 | 3.2 | 0.00 | 0.00 | 0.00 | 32 | 1020.5 |
| 20260502030502 | 10 | 220 | 0.0 | 3.2 | 0.00 | 0.00 | 0.00 | 34 | 1020.4 |
| 20260502030020 | 10 | 220 | 0.0 | 3.2 | 0.00 | 0.00 | 0.00 | 33 | 1020.4 |
| 20260502025506 | 10 | 190 | 0.0 | 3.2 | 0.00 | 0.00 | 0.00 | 34 | 1020.3 |
| 20260502025012 | 11 | 190 | 0.0 | 3.2 | 0.00 | 0.00 | 0.00 | 33 | 1020.2 |
| 20260502024518 | 11 | 190 | 0.0 | 3.2 | 0.00 | 0.00 | 0.00 | 33 | 1020.1 |
| 20260502024010 | 11 | 190 | 0.0 | 3.2 | 0.00 | 0.00 | 0.00 | 32 | 1020.0 |
| 20260502023507 | 11 | 138 | 0.0 | 3.2 | 0.00 | 0.00 | 0.00 | 32 | 1019.9 |
| 20260502023032 | 11 | 88 | 0.0 | 3.2 | 0.00 | 0.00 | 0.00 | 31 | 1019.8 |
| 20260502022503 | 12 | 87 | 0.0 | 3.2 | 0.00 | 0.00 | 0.00 | 31 | 1019.7 |
| 20260502022005 | 12 | 62 | 0.0 | 3.2 | 0.00 | 0.00 | 0.00 | 29 | 1019.6 |
| 20260502021520 | 12 | 61 | 0.0 | 3.2 | 0.00 | 0.00 | 0.00 | 27 | 1019.5 |
| 20260502021008 | 13 | 61 | 0.0 | 1.6 | 0.00 | 0.00 | 0.00 | 26 | 1019.5 |
| 20260502020510 | 13 | 61 | 0.0 | 0.0 | 0.00 | 0.00 | 0.00 | 25 | 1019.4 |
| 20260502020028 | 13 | 61 | 0.0 | 3.2 | 0.00 | 0.00 | 0.00 | 25 | 1019.4 |
| 20260502015509 | 14 | 61 | 0.0 | 3.2 | 0.00 | 0.00 | 0.00 | 23 | 1019.3 |
| 20260502015013 | 14 | 61 | 0.0 | 4.8 | 0.00 | 0.00 | 0.00 | 23 | 1019.3 |
| 20260502014504 | 15 | 44 | 1.6 | 4.8 | 0.00 | 0.00 | 0.00 | 23 | 1019.2 |
| 20260502014006 | 15 | 42 | 1.6 | 8.0 | 0.00 | 0.00 | 0.00 | 23 | 1019.1 |
| 20260502013506 | 15 | 39 | 3.2 | 8.0 | 0.00 | 0.00 | 0.00 | 21 | 1019.1 |
| 20260502013019 | 15 | 98 | 0.0 | 3.2 | 0.00 | 0.00 | 0.00 | 21 | 1019.1 |
| 20260502012507 | 15 | 98 | 0.0 | 3.2 | 0.00 | 0.00 | 0.00 | 22 | 1019.0 |
| 20260502012010 | 15 | 98 | 0.0 | 6.4 | 0.00 | 0.00 | 0.00 | 22 | 1018.9 |
| 20260502011526 | 15 | 38 | 0.0 | 6.4 | 0.00 | 0.00 | 0.00 | 21 | 1018.9 |
| 20260502011009 | 15 | 82 | 1.6 | 3.2 | 0.00 | 0.00 | 0.00 | 21 | 1018.8 |
| 20260502010503 | 15 | 83 | 0.0 | 3.2 | 0.00 | 0.00 | 0.00 | 20 | 1018.9 |
| 20260502010019 | 15 | 328 | 0.0 | 6.4 | 0.00 | 0.00 | 0.00 | 19 | 1018.8 |
| 20260502005508 | 15 | 328 | 3.2 | 6.4 | 0.00 | 0.00 | 0.00 | 19 | 1018.8 |
| 20260502005009 | 15 | 19 | 0.0 | 4.8 | 0.00 | 0.00 | 0.00 | 19 | 1018.7 |
| 20260502004528 | 16 | 274 | 1.6 | 4.8 | 0.00 | 0.00 | 0.00 | 19 | 1018.7 |
| 20260502004010 | 16 | 50 | 1.6 | 8.0 | 0.00 | 0.00 | 0.00 | 18 | 1018.7 |
| 20260502003510 | 16 | 34 | 1.6 | 9.7 | 0.00 | 0.00 | 0.00 | 18 | 1018.7 |
| 20260502003028 | 16 | 75 | 1.6 | 9.7 | 0.00 | 0.00 | 0.00 | 18 | 1018.7 |
| 20260502002503 | 17 | 344 | 1.6 | 6.4 | 0.00 | 0.00 | 0.00 | 18 | 1018.7 |
| 20260502002009 | 16 | 5 | 0.0 | 8.0 | 0.00 | 0.00 | 0.00 | 18 | 1018.6 |
| 20260502001512 | 16 | 284 | 3.2 | 8.0 | 0.00 | 0.00 | 0.00 | 19 | 1018.6 |
| 20260502001008 | 16 | 342 | 1.6 | 12.9 | 0.00 | 0.00 | 0.00 | 19 | 1018.7 |
| 20260502000510 | 16 | 19 | 3.2 | 12.9 | 0.00 | 0.00 | 0.00 | 18 | 1018.7 |
| 20260502000047 | 17 | 348 | 4.8 | 16.1 | 0.00 | 0.00 | 0.00 | 18 | 1018.7 |
| 20260501235508 | 17 | 260 | 3.2 | 16.1 | 0.00 | 0.00 | 0.00 | 18 | 1018.5 |
| 20260501235008 | 17 | 346 | 3.2 | 16.1 | 0.00 | 0.00 | 0.00 | 17 | 1018.6 |
| 20260501234513 | 16 | 310 | 3.2 | 14.5 | 0.00 | 0.00 | 0.00 | 17 | 1018.5 |
| 20260501234006 | 17 | 9 | 6.4 | 12.9 | 0.00 | 0.00 | 0.00 | 17 | 1018.6 |
| 20260501233506 | 17 | 24 | 1.6 | 4.8 | 0.00 | 0.00 | 0.00 | 18 | 1018.6 |
| 20260501233024 | 17 | 341 | 1.6 | 4.8 | 0.00 | 0.00 | 0.00 | 18 | 1018.6 |
| 20260501232512 | 16 | 263 | 1.6 | 6.4 | 0.00 | 0.00 | 0.00 | 18 | 1018.6 |
| 20260501232013 | 16 | 338 | 0.0 | 16.1 | 0.00 | 0.00 | 0.00 | 18 | 1018.6 |
| 20260501231527 | 16 | 58 | 6.4 | 16.1 | 0.00 | 0.00 | 0.00 | 18 | 1018.7 |
| 20260501231010 | 17 | 106 | 4.8 | 14.5 | 0.00 | 0.00 | 0.00 | 18 | 1018.6 |
| 20260501230503 | 17 | 48 | 4.8 | 14.5 | 0.00 | 0.00 | 0.00 | 18 | 1018.6 |
| 20260501230047 | 17 | 24 | 1.6 | 4.8 | 0.00 | 0.00 | 0.00 | 17 | 1018.5 |
| 20260501225506 | 17 | 246 | 1.6 | 6.4 | 0.00 | 0.00 | 0.00 | 19 | 1018.5 |
| 20260501225011 | 16 | 253 | 1.6 | 9.7 | 0.00 | 0.00 | 0.00 | 18 | 1018.5 |
| 20260501224528 | 16 | 334 | 4.8 | 16.1 | 0.00 | 0.00 | 0.00 | 18 | 1018.6 |
| 20260501224008 | 17 | 317 | 4.8 | 16.1 | 0.00 | 0.00 | 0.00 | 18 | 1018.6 |
| 20260501223509 | 18 | 18 | 3.2 | 6.4 | 0.00 | 0.00 | 0.00 | 18 | 1018.5 |
| 20260501223029 | 17 | 41 | 1.6 | 8.0 | 0.00 | 0.00 | 0.00 | 19 | 1018.5 |
| 20260501222503 | 17 | 295 | 1.6 | 8.0 | 0.00 | 0.00 | 0.00 | 19 | 1018.5 |
| 20260501222007 | 17 | 263 | 1.6 | 6.4 | 0.00 | 0.00 | 0.00 | 18 | 1018.5 |
| 20260501221525 | 17 | 46 | 3.2 | 12.9 | 0.00 | 0.00 | 0.00 | 19 | 1018.6 |
| 20260501221007 | 17 | 140 | 4.8 | 14.5 | 0.00 | 0.00 | 0.00 | 19 | 1018.7 |
| 20260501220510 | 16 | 15 | 4.8 | 14.5 | 0.00 | 0.00 | 0.00 | 20 | 1018.7 |
| 20260501220026 | 17 | 36 | 4.8 | 11.3 | 0.00 | 0.00 | 0.00 | 19 | 1018.7 |
| 20260501215510 | 16 | 84 | 1.6 | 8.0 | 0.00 | 0.00 | 0.00 | 21 | 1018.8 |
| 20260501215012 | 16 | 257 | 1.6 | 8.0 | 0.00 | 0.00 | 0.00 | 20 | 1018.8 |
| 20260501214524 | 16 | 294 | 3.2 | 16.1 | 0.00 | 0.00 | 0.00 | 21 | 1018.9 |
| 20260501214007 | 17 | 54 | 8.0 | 16.1 | 0.00 | 0.00 | 0.00 | 20 | 1019.0 |
| 20260501213508 | 17 | 46 | 1.6 | 12.9 | 0.00 | 0.00 | 0.00 | 21 | 1018.9 |
| 20260501213031 | 16 | 9 | 4.8 | 14.5 | 0.00 | 0.00 | 0.00 | 20 | 1019.1 |
| 20260501212510 | 16 | 131 | 3.2 | 19.3 | 0.00 | 0.00 | 0.00 | 21 | 1019.1 |
| 20260501212009 | 16 | 41 | 9.7 | 19.3 | 0.00 | 0.00 | 0.00 | 21 | 1019.1 |
| 20260501211526 | 16 | 61 | 1.6 | 17.7 | 0.00 | 0.00 | 0.00 | 22 | 1019.1 |
| 20260501211014 | 16 | 34 | 6.4 | 16.1 | 0.00 | 0.00 | 0.00 | 22 | 1019.3 |
| 20260501210506 | 16 | 120 | 3.2 | 16.1 | 0.00 | 0.00 | 0.00 | 23 | 1019.2 |
| 20260501210023 | 16 | 92 | 8.0 | 16.1 | 0.00 | 0.00 | 0.00 | 23 | 1019.4 |
| 20260501205508 | 16 | 63 | 6.4 | 16.1 | 0.00 | 0.00 | 0.00 | 23 | 1019.4 |
| 20260501205007 | 16 | 136 | 4.8 | 17.7 | 0.00 | 0.00 | 0.00 | 22 | 1019.4 |
| 20260501204525 | 16 | 64 | 6.4 | 16.1 | 0.00 | 0.00 | 0.00 | 23 | 1019.4 |
| 20260501204012 | 16 | 44 | 6.4 | 14.5 | 0.00 | 0.00 | 0.00 | 24 | 1019.4 |
| 20260501203511 | 16 | 339 | 4.8 | 12.9 | 0.00 | 0.00 | 0.00 | 23 | 1019.4 |
| 20260501203029 | 16 | 31 | 1.6 | 14.5 | 0.00 | 0.00 | 0.00 | 23 | 1019.4 |
| 20260501202506 | 16 | 188 | 4.8 | 19.3 | 0.00 | 0.00 | 0.00 | 25 | 1019.5 |
| 20260501202009 | 16 | 115 | 3.2 | 20.9 | 0.00 | 0.00 | 0.00 | 24 | 1019.5 |
| 20260501201526 | 16 | 60 | 11.3 | 20.9 | 0.00 | 0.00 | 0.00 | 23 | 1019.5 |
| 20260501201007 | 16 | 53 | 1.6 | 17.7 | 0.00 | 0.00 | 0.00 | 23 | 1019.5 |
| 20260501200518 | 16 | 84 | 6.4 | 17.7 | 0.00 | 0.00 | 0.00 | 25 | 1019.6 |
| 20260501200029 | 15 | 26 | 6.4 | 14.5 | 0.00 | 0.00 | 0.00 | 25 | 1019.5 |
| 20260501195511 | 15 | 65 | 3.2 | 14.5 | 0.00 | 0.00 | 0.00 | 26 | 1019.6 |
| 20260501195010 | 15 | 352 | 4.8 | 14.5 | 0.00 | 0.00 | 0.00 | 25 | 1019.6 |
| 20260501194526 | 15 | 90 | 3.2 | 12.9 | 0.00 | 0.00 | 0.00 | 26 | 1019.6 |
| 20260501194010 | 15 | 327 | 4.8 | 12.9 | 0.00 | 0.00 | 0.00 | 25 | 1019.6 |
| 20260501193509 | 15 | 77 | 3.2 | 12.9 | 0.00 | 0.00 | 0.00 | 25 | 1019.7 |
| 20260501193036 | 15 | 79 | 3.2 | 14.5 | 0.00 | 0.00 | 0.00 | 25 | 1019.6 |
| 20260501192507 | 15 | 30 | 3.2 | 14.5 | 0.00 | 0.00 | 0.00 | 27 | 1019.6 |
| 20260501192015 | 15 | 304 | 3.2 | 11.3 | 0.00 | 0.00 | 0.00 | 26 | 1019.6 |
| 20260501191527 | 15 | 283 | 1.6 | 14.5 | 0.00 | 0.00 | 0.00 | 25 | 1019.8 |
| 20260501191010 | 15 | 345 | 4.8 | 14.5 | 0.00 | 0.00 | 0.00 | 26 | 1019.8 |